Flag for Ecuador Weather past 2 weeks in Quito, Ecuador

Now
48 °F

Passing clouds.


Feels Like: 48 °F
Forecast: 49 / 63 °F
Wind: 2 mph from Northwest

Location: Latacunga Airport

Current Time: May 26, 2015 at 1:52:32 AM

Latest Report: May 26, 2015 at 1:00 AM


Visibility: N/A

Pressure: 30.48 "Hg

Humidity: 94%

Dew point: 46 °F

Location of QuitoLocation

Historic Weather in Quito — Graph

°F

Quito temperature yesterday

Maximum temperature yesterday: 63 °F (at 1:00 PM)
Minimum temperature yesterday: 48 °F (at 11:00 PM)
Average temperature yesterday: 54 °F

Past Weeks' High & Low Weather Summary

 TemperatureHumidityPressure
High70 °F (May 22, 3:00 PM)100% (May 11, 4:00 AM)30.54 "Hg (May 11, 4:00 AM)
Low45 °F (May 24, 4:00 AM)49% (May 22, 2:00 PM)30.33 "Hg (May 11, 4:00 PM)
Average56 °F82%30.44 "Hg
* Reported Midnight between May 10 and May 11 — Midnight between May 25 and May 26, Quito, Weather by CustomWeather, © 2015

Note: Actual official high and low records may vary slightly from our data, if they occured in-between our weather recording intervals... More about our weather records

Advertising

Quito weather history for previous 24 hours

 ConditionsComfort  
Time TempWeatherWind HumidityBarometerVisibility
12:00 AM
Tue, May 26
48 °FPassing clouds.2 mph100%30.48 "HgN/A
11:00 PM
Mon, May 25
48 °FPassing clouds.2 mph94%30.51 "HgN/A
10:00 PM50 °FPassing clouds.2 mph88%30.48 "HgN/A
9:00 PM50 °FPassing clouds.3 mph94%30.48 "HgN/A
8:00 PM52 °FPassing clouds.2 mph94%30.45 "HgN/A
7:00 PM54 °FPassing clouds.7 mph94%30.42 "HgN/A
6:00 PM55 °FScattered clouds.2 mph82%30.42 "HgN/A
5:00 PM55 °FScattered clouds.2 mph82%30.42 "HgN/A
4:00 PM55 °FLight rain. Broken clouds.3 mph88%30.42 "HgN/A
3:00 PM55 °FLight rain. Broken clouds.5 mph88%30.42 "HgN/A
2:00 PM57 °FLight rain. Broken clouds.9 mph88%30.45 "HgN/A
1:00 PM63 °FScattered showers. Partly sunny.5 mph68%30.45 "HgN/A
12:00 PM61 °FScattered showers. Partly sunny.7 mph68%30.45 "HgN/A
11:00 AM61 °FPartly sunny.10 mph68%30.48 "HgN/A
9:00 AM57 °FPartly sunny.5 mph77%30.48 "HgN/A
8:00 AM54 °FOvercast.2 mph88%30.48 "HgN/A
7:00 AM52 °FPartly sunny.2 mph88%30.48 "HgN/A
6:00 AM52 °FPassing clouds.2 mph88%30.45 "HgN/A
5:00 AM52 °FPassing clouds.3 mph94%30.48 "HgN/A
4:00 AM52 °FOvercast.6 mph94%30.45 "HgN/A
3:00 AM52 °FOvercast.5 mph94%30.45 "HgN/A
1:00 AM52 °FOvercast.5 mph94%30.48 "HgN/A
Weather by CustomWeather, © 2015

See weather overviewHow to use our weather pages